DECAYED

CZ-4C R/B, 51285 (Decayed)

Orbit data source: Space-Track

CZ-4C R/B, 51285 was space debris in LEO originally from a launch on Tue, 25 Jan 2022 UTC launched from the Jiuquan Satellite Launch Center, China (JSC). Debris objects in space refer to the collection of defunct objects orbiting the Earth. Examples of debris include non-operational satellites, rocket bodies, and fragments generated from explosions, collisions, or faulty payload assembly.

Not visible in the next 10 days
Identifier
51285, 2022-007B
Orbit
Decayed
Country
Flag of CNCN / PRC
Related business
Manufacturer
SAST
Mission
Decayed spacecraft
Bus & Motor
CZ-4 STAGE 3, Unknown motor
Mass
~1,000 kg wet, ~1,000 kg dry
Launch date (UTC)
2022-01-25 (4 years ago)
Launch vehicle
Unknown
Launch site
Jiuquan Satellite Launch Center, China (JSC)
Object type
Payload
Rocket body
Debris
Shape & HBR
Cyl, 2.5 m
Radar Cross Section
14.536 m², Large (>1 m²)

Expand to show TLE details & history
Last TLE update: 2 weeks ago

TLE from 2 weeks ago
0 CZ-4C R/B
1 51285U 22007B   26024.02105775  .09330815  27660-5  19818-3 0  9998
2 51285  97.6828 135.5587 0012754 261.2055  98.7802 16.45863789223904
Epoch: 2026-01-24T00:30Z
TLE epoch observation values (Epoch: 2026-01-24T00:30:19.389Z)
Latitude
-0.00008°
Longitude
4.62642°
Altitude
154.782 km
Speed
7.812 km/s
True Right ascension
09h 02m 14s
True Declination
0° 00' 00"
Sunlit
Object was in full shadow at epoch
Visualization orbit readout
Latitude
Unknown
Longitude
Unknown
Altitude
Unknown
Speed
Unknown
Apparent Right ascension
Unknown
Apparent Declination
Unknown
Sunlit
N/A
Visualization observer readout
Local Sidereal Time
10:17:40
Azimuth
Unknown
Elevation
Unknown
Doppler factor
Unknown
Orbital elements
Apogee altitude
155.386 km
Perigee altitude
138.741 km
Semi-major axis
6,525.2 km
Eccentricity
0.00128
Inclination
97.6828°
RAAN
135.5587°
Arg. of periapsis
261.2055°
True anomaly
98.9246°
Mean anomaly
98.7802°
Eccentric anomaly
98.8524°
Mean motion
4.11768 °/min
Orbital period
87.43 mins
BSTAR
0.00019818
Loading maneuver chart data...
Computing Atmospheric mass density...
Loading historical data...
Loading historical data...
Loading historical data...
Loading historical data...
Loading historical data...
Loading historical data...
Loading historical data...
Other satellites on launch #7 in the year 2022 (2022-01-25 UTC)

Documentation

Showing up to 5 results
|